Regional Weather Roundup
Issued by NWS

Home | Current Version | Previous Version | Text Only | Print | Product List | Glossary Off
Versions: 1 2 3 4 5 6 7 8 9 10 11 12 13 14 15 16 17 18 19 20 21 22 23 24 25 26 27 28 29 30 31 32 33 34 35 36 37 38 39 40 41 42 43 44 45 46 47 48 49 50

973
ASUS43 KLMK 120410
RWRKY
KENTUCKY REGIONAL WEATHER ROUNDUP
NATIONAL WEATHER SERVICE LOUISVILLE KY
1100 PM EST MON DEC 11 2017

NOTE "FAIR" INDICATES FEW OR NO CLOUDS BELOW 12,000 FEET
WITH NO SIGNIFICANT WEATHER AND/OR OBSTRUCTIONS TO VISIBILITY.

KYZ001>023-026-027-061>063-070>075-120500-
WESTERN AND SOUTH CENTRAL KENTUCKY

CITY           SKY/WX    TMP DP  RH WIND       PRES   REMARKS
PADUCAH        PTCLDY    50  27  40 NW12G22   29.95R
HENDERSON      CLOUDY    48  32  53 NW12G23   29.89R
OWENSBORO      CLOUDY    48  31  51 NW20      29.88R
HOPKINSVILLE   PTCLDY    48  26  41 NW6       29.90R
BOWLING GREEN  PTCLDY    50  28  42 W10G20    29.88R
GLASGOW        PTCLDY    47  28  45 W8G17     29.86S
$$

KYZ024-025-028>034-038-045-046-053-120500-
NORTH CENTRAL KENTUCKY

CITY           SKY/WX    TMP DP  RH WIND       PRES   REMARKS
LOUISVILLE/SDF PTCLDY    48  28  46 W17G29    29.80R
LOUISVILLE/LOU PTCLDY    46  29  51 W13G21    29.80R
FORT KNOX      CLEAR     46  28  50 W12G21    29.80R
$$

KYZ035>037-039>044-047>052-055>060-089>105-120500-
NORTHEAST KENTUCKY

CITY           SKY/WX    TMP DP  RH WIND       PRES   REMARKS
LEXINGTON      CLOUDY    47  29  49 W14       29.77R
COVINGTON      CLOUDY    44  27  51 W16       29.70S
FRANKFORT      PTCLDY    47  25  42 W9        29.76R
$$

KYZ054-064>069-076>088-106>120-120500-
SOUTHEAST KENTUCKY

CITY           SKY/WX    TMP DP  RH WIND       PRES   REMARKS
JACKSON        CLOUDY    49  29  46 SW8       29.75S
LONDON         MOCLDY    49  29  46 SW13      29.78F
SOMERSET       PTCLDY    50  30  46 W13G21    29.82S
MIDDLESBORO    PTCLDY    42  32  66 CALM      29.84F
MONTICELLO     PTCLDY    51  31  46 W20G31    29.84R
$$





USA.gov is the U.S. government's official web portal to all federal, state and local government web resources and services.